When you browse on this site, cookies collect data to enhance your experience and personalize the content and advertising you see.
Visit our Privacy Policy to learn more. By continuing to use the site, you agree to this use of cookies and data.

Stündliche Wetter Bolshie Kaybicy

Heute, 27 September, Sonntag

Zeit Temperatur Niederschläge Wind Luftdruck Luftfeuchtigkeit
00:00 +12°C° 0 mm 2 m/S 764 mmHg 66%
01:00 +10°C° 0 mm 2 m/S 765 mmHg 66%
02:00 +10°C° 0 mm 2 m/S 765 mmHg 65%
03:00 +10°C° 0 mm 2 m/S 765 mmHg 65%
04:00 +10°C° 0 mm 2 m/S 765 mmHg 65%
05:00 +9°C° 0 mm 2 m/S 765 mmHg 65%
06:00 +9°C° 0 mm 2 m/S 765 mmHg 66%
07:00 +10°C° 0 mm 2 m/S 766 mmHg 63%
08:00 +13°C° 0 mm 2 m/S 766 mmHg 60%
09:00 +14°C° 0 mm 2 m/S 766 mmHg 57%
10:00 +15°C° 0 mm 2 m/S 766 mmHg 53%
11:00 +16°C° 0 mm 3 m/S 766 mmHg 50%
12:00 +17°C° 0 mm 3 m/S 766 mmHg 46%
13:00 +17°C° 0 mm 3 m/S 766 mmHg 46%
14:00 +17°C° 0 mm 3 m/S 766 mmHg 47%
15:00 +17°C° 0 mm 2 m/S 766 mmHg 47%
16:00 +16°C° 0 mm 2 m/S 766 mmHg 51%
17:00 +14°C° 0 mm 2 m/S 766 mmHg 55%
18:00 +13°C° 0 mm 2 m/S 766 mmHg 59%
19:00 +12°C° 0 mm 2 m/S 766 mmHg 60%
20:00 +12°C° 0 mm 2 m/S 766 mmHg 60%
21:00 +10°C° 0 mm 2 m/S 766 mmHg 61%
22:00 +10°C° 0 mm 2 m/S 766 mmHg 62%
23:00 +11°C° 0 mm 1 m/S 766 mmHg 62%

Morgen, 28 September, Montag

Zeit Temperatur Niederschläge Wind Luftdruck Luftfeuchtigkeit
00:00 +11°C° 0 mm 1 m/S 767 mmHg 63%
01:00 +11°C° 0 mm 1 m/S 767 mmHg 63%
02:00 +11°C° 0 mm 1 m/S 767 mmHg 63%
03:00 +11°C° 0 mm 1 m/S 767 mmHg 63%
04:00 +11°C° 0 mm 1 m/S 767 mmHg 64%
05:00 +10°C° 0 mm 1 m/S 767 mmHg 65%
06:00 +10°C° 0 mm 1 m/S 767 mmHg 66%
07:00 +11°C° 0 mm 1 m/S 767 mmHg 62%
08:00 +13°C° 0 mm 2 m/S 767 mmHg 58%
09:00 +14°C° 0 mm 2 m/S 767 mmHg 54%
10:00 +15°C° 0 mm 2 m/S 767 mmHg 50%
11:00 +17°C° 0 mm 2 m/S 767 mmHg 46%
12:00 +18°C° 0 mm 2 m/S 767 mmHg 42%
13:00 +18°C° 0 mm 2 m/S 767 mmHg 42%
14:00 +18°C° 0 mm 2 m/S 767 mmHg 42%
15:00 +18°C° 0 mm 2 m/S 767 mmHg 42%
16:00 +17°C° 0 mm 2 m/S 767 mmHg 47%
17:00 +15°C° 0 mm 2 m/S 767 mmHg 51%
18:00 +13°C° 0 mm 2 m/S 767 mmHg 55%
19:00 +13°C° 0 mm 2 m/S 767 mmHg 56%
20:00 +12°C° 0 mm 2 m/S 767 mmHg 56%
21:00 +12°C° 0 mm 2 m/S 767 mmHg 56%
22:00 +11°C° 0 mm 1 m/S 767 mmHg 58%
23:00 +11°C° 0 mm 1 m/S 767 mmHg 59%

übermorgen, 29 September, Dienstag

Zeit Temperatur Niederschläge Wind Luftdruck Luftfeuchtigkeit
00:00 +11°C° 0 mm 1 m/S 767 mmHg 61%
01:00 +10°C° 0 mm 1 m/S 767 mmHg 62%
02:00 +10°C° 0 mm 1 m/S 767 mmHg 64%
03:00 +10°C° 0 mm 1 m/S 767 mmHg 65%
04:00 +10°C° 0 mm 1 m/S 767 mmHg 66%
05:00 +9°C° 0 mm 1 m/S 767 mmHg 67%
06:00 +9°C° 0 mm 1 m/S 767 mmHg 68%
07:00 +11°C° 0 mm 1 m/S 767 mmHg 63%
08:00 +13°C° 0 mm 2 m/S 767 mmHg 59%
09:00 +14°C° 0 mm 2 m/S 767 mmHg 55%
10:00 +16°C° 0 mm 2 m/S 767 mmHg 52%
11:00 +17°C° 0 mm 2 m/S 767 mmHg 49%
12:00 +18°C° 0 mm 2 m/S 767 mmHg 46%
13:00 +18°C° 0 mm 2 m/S 767 mmHg 46%
14:00 +19°C° 0 mm 2 m/S 766 mmHg 46%
15:00 +19°C° 0 mm 2 m/S 766 mmHg 47%
16:00 +17°C° 0 mm 2 m/S 766 mmHg 53%
17:00 +15°C° 0 mm 2 m/S 766 mmHg 59%
18:00 +14°C° 0 mm 2 m/S 766 mmHg 66%
19:00 +13°C° 0 mm 2 m/S 766 mmHg 67%
20:00 +12°C° 0 mm 2 m/S 766 mmHg 69%
21:00 +12°C° 0 mm 2 m/S 766 mmHg 71%
22:00 +10°C° 0 mm 2 m/S 766 mmHg 72%
23:00 +10°C° 0 mm 2 m/S 765 mmHg 74%

30 September, Mittwoch

Zeit Temperatur Niederschläge Wind Luftdruck Luftfeuchtigkeit
00:00 +10°C° 0 mm 2 m/S 765 mmHg 75%
01:00 +10°C° 0 mm 1 m/S 765 mmHg 76%
02:00 +10°C° 0 mm 1 m/S 765 mmHg 77%
03:00 +10°C° 0 mm 1 m/S 765 mmHg 77%
04:00 +10°C° 0 mm 1 m/S 765 mmHg 79%
05:00 +9°C° 0 mm 1 m/S 765 mmHg 80%
06:00 +9°C° 0 mm 1 m/S 765 mmHg 81%
07:00 +10°C° 0 mm 2 m/S 765 mmHg 76%
08:00 +12°C° 0 mm 2 m/S 765 mmHg 70%
09:00 +14°C° 0 mm 2 m/S 765 mmHg 65%
10:00 +14°C° 0 mm 3 m/S 765 mmHg 61%
11:00 +17°C° 0 mm 3 m/S 765 mmHg 56%
12:00 +18°C° 0 mm 3 m/S 765 mmHg 52%
13:00 +18°C° 0 mm 3 m/S 764 mmHg 53%
14:00 +18°C° 0 mm 3 m/S 764 mmHg 54%
15:00 +18°C° 0 mm 3 m/S 764 mmHg 55%
16:00 +16°C° 0 mm 3 m/S 764 mmHg 62%
17:00 +14°C° 0 mm 3 m/S 764 mmHg 68%
18:00 +13°C° 0 mm 2 m/S 764 mmHg 75%
19:00 +13°C° 0 mm 2 m/S 764 mmHg 76%
20:00 +12°C° 0 mm 2 m/S 764 mmHg 77%
21:00 +12°C° 0 mm 2 m/S 764 mmHg 78%
22:00 +10°C° 0 mm 2 m/S 764 mmHg 79%
23:00 +10°C° 0 mm 2 m/S 764 mmHg 80%

1 Oktober, Donnerstag

Zeit Temperatur Niederschläge Wind Luftdruck Luftfeuchtigkeit
00:00 +11°C° 0 mm 1 m/S 764 mmHg 81%
01:00 +11°C° 0 mm 1 m/S 764 mmHg 82%
02:00 +11°C° 0 mm 1 m/S 764 mmHg 83%
03:00 +10°C° 0 mm 1 m/S 764 mmHg 83%
04:00 +10°C° 0 mm 1 m/S 764 mmHg 84%
05:00 +9°C° 0 mm 2 m/S 764 mmHg 85%
06:00 +9°C° 0 mm 2 m/S 764 mmHg 86%
07:00 +12°C° 0 mm 2 m/S 764 mmHg 81%
08:00 +13°C° 0 mm 2 m/S 764 mmHg 75%
09:00 +15°C° 0 mm 2 m/S 764 mmHg 69%
10:00 +16°C° 0 mm 2 m/S 764 mmHg 64%
11:00 +17°C° 0 mm 2 m/S 764 mmHg 60%
12:00 +18°C° 0 mm 3 m/S 764 mmHg 55%
13:00 +19°C° 0 mm 3 m/S 764 mmHg 55%
14:00 +19°C° 0 mm 3 m/S 764 mmHg 54%
15:00 +19°C° 0 mm 3 m/S 764 mmHg 54%
16:00 +17°C° 0 mm 2 m/S 764 mmHg 60%
17:00 +15°C° 0 mm 2 m/S 764 mmHg 67%
18:00 +14°C° 0 mm 2 m/S 764 mmHg 73%
19:00 +13°C° 0 mm 2 m/S 764 mmHg 74%
20:00 +13°C° 0 mm 2 m/S 764 mmHg 76%
21:00 +12°C° 0 mm 2 m/S 764 mmHg 77%
22:00 +12°C° 0 mm 1 m/S 764 mmHg 77%
23:00 +12°C° 0 mm 1 m/S 764 mmHg 78%

2 Oktober, Freitag

Zeit Temperatur Niederschläge Wind Luftdruck Luftfeuchtigkeit
00:00 +11°C° 0 mm 1 m/S 764 mmHg 78%
01:00 +11°C° 0 mm 1 m/S 764 mmHg 79%
02:00 +11°C° 0 mm 1 m/S 764 mmHg 81%
03:00 +11°C° 0 mm 1 m/S 764 mmHg 82%
04:00 +10°C° 0 mm 1 m/S 765 mmHg 83%
05:00 +10°C° 0 mm 1 m/S 765 mmHg 85%
06:00 +10°C° 0 mm 1 m/S 765 mmHg 86%
07:00 +11°C° 0 mm 1 m/S 765 mmHg 81%
08:00 +13°C° 0 mm 2 m/S 765 mmHg 77%
09:00 +15°C° 0 mm 2 m/S 765 mmHg 72%
10:00 +16°C° 0 mm 2 m/S 765 mmHg 67%
11:00 +17°C° 0 mm 2 m/S 765 mmHg 62%
12:00 +18°C° 0 mm 3 m/S 765 mmHg 58%
13:00 +18°C° 0 mm 3 m/S 764 mmHg 57%
14:00 +18°C° 0 mm 3 m/S 764 mmHg 56%
15:00 +19°C° 0 mm 3 m/S 764 mmHg 55%
16:00 +17°C° 0 mm 2 m/S 764 mmHg 61%
17:00 +15°C° 0 mm 2 m/S 764 mmHg 66%
18:00 +14°C° 0 mm 2 m/S 764 mmHg 72%
19:00 +13°C° 0 mm 2 m/S 764 mmHg 74%
20:00 +13°C° 0 mm 2 m/S 764 mmHg 75%
21:00 +12°C° 0 mm 2 m/S 764 mmHg 77%
22:00 +12°C° 0 mm 1 m/S 764 mmHg 77%
23:00 +11°C° 0 mm 1 m/S 764 mmHg 78%
Mehr zeigen